Vorticity
2 1 1 2 2 3 4 5 7 8 9 9 8 8 8 8 8 8 8 8 8 8 7 7 8 8 8 9 10 10 10 10 11 11 12 13 13 12 11 9 7 5 5 5 5 4 4 3 3 2 2 2 2 2 2 2 2 1 1 2 2 2 3 3 2 2 2 1 1
3 2 1 1 2 3 4 6 7 8 9 9 9 8 8 8 8 8 8 9 8 8 8 8 8 9 9 9 10 11 11 11 11 12 12 12 12 11 10 8 6 5 5 5 5 5 4 3 2 2 2 2 2 2 2 2 1 1 1 2 2 2 2 3 2 2 2 1 1
3 2 0 0 1 2 4 6 8 9 10 9 8 8 8 8 8 8 8 8 8 8 8 9 9 10 10 10 11 11 11 12 12 12 12 12 11 10 9 7 6 6 5 5 5 5 4 3 2 2 2 2 3 3 2 2 1 1 1 1 2 2 2 2 2 2 2 1 1
3 2 0 -0 0 2 5 7 9 10 10 10 9 8 8 8 9 9 9 9 9 9 9 10 10 10 11 11 12 12 12 12 12 12 11 11 10 9 8 7 6 6 6 6 5 5 4 3 2 2 2 2 3 3 2 2 1 1 1 1 2 2 2 2 2 2 2 2 1
4 3 1 0 1 3 6 8 10 11 10 10 9 9 9 9 9 9 9 9 9 9 10 10 11 12 12 12 12 12 12 12 12 11 11 10 10 9 8 6 6 6 6 6 6 5 4 3 2 2 2 2 3 3 2 2 2 1 1 2 2 2 2 2 2 2 2 2 2
6 4 3 2 3 5 7 10 11 12 11 11 10 10 9 9 9 9 9 9 9 10 10 11 12 13 13 13 12 12 12 12 11 10 10 9 9 8 7 6 6 6 6 6 6 5 4 3 3 2 2 2 3 3 3 2 2 2 2 2 2 2 2 2 2 2 2 2 2
7 6 5 5 6 8 10 12 13 13 12 12 11 10 10 10 9 9 10 10 10 11 11 12 12 12 12 12 12 12 11 11 10 10 9 8 8 7 7 6 6 6 6 6 6 6 5 4 3 3 3 3 3 3 3 2 2 1 1 1 1 1 0 1 1 1 1 1 1
9 8 8 9 10 12 13 15 15 14 13 12 11 10 10 10 10 10 10 10 10 10 11 11 11 11 11 11 11 11 10 10 10 9 9 8 7 7 6 6 6 7 7 7 7 6 6 4 4 3 3 3 3 3 3 2 2 1 1 0 0 0 -0 -0 -0 0 0 1 2
12 12 12 13 14 15 16 16 16 15 13 12 11 10 10 10 10 10 10 9 10 10 10 10 10 10 10 10 10 9 9 9 9 9 8 8 7 7 6 6 7 7 8 8 8 7 7 6 5 4 4 3 3 3 3 2 2 2 1 1 0 0 0 0 1 2 3 5 6
15 15 16 16 16 17 17 16 14 13 12 11 10 9 9 9 9 9 9 9 9 9 8 8 9 9 8 8 8 8 8 8 8 7 7 7 6 6 6 6 7 7 8 9 9 9 8 7 7 6 5 5 4 4 4 4 4 3 3 2 2 2 3 4 6 8 10 11 11
17 17 17 16 16 15 14 13 11 10 9 8 8 7 7 7 7 7 7 7 7 7 7 7 7 7 7 7 7 7 7 7 6 6 6 5 5 5 5 6 7 8 9 9 10 10 10 9 9 8 8 7 7 6 6 6 6 6 6 6 7 8 9 11 13 14 15 14 8
14 14 14 13 12 11 10 9 8 7 7 6 6 6 6 6 6 6 6 6 6 6 6 7 6 6 6 6 6 6 6 6 5 5 4 4 4 5 6 6 8 8 9 10 10 11 11 10 10 10 10 9 9 9 9 10 10 11 11 12 13 14 14 14 11 9 7 4 -0
9 9 9 8 8 7 6 6 6 6 6 6 6 6 6 6 6 6 6 6 6 6 6 6 6 6 6 6 5 5 5 5 5 5 5 5 6 6 7 8 9 10 10 11 11 11 11 11 11 11 11 11 11 11 12 12 13 14 14 14 14 14 13 11 7 4 2 0 3
6 6 6 6 6 6 6 6 7 8 8 8 8 8 8 7 7 7 7 7 7 7 7 6 6 6 6 6 6 6 6 6 6 6 7 7 8 9 10 10 11 11 11 11 11 11 11 11 11 11 11 11 11 12 13 14 14 14 14 13 12 11 11 10 10 10 10 11 11
6 6 6 6 7 8 9 10 10 10 10 10 10 10 9 9 9 9 9 9 8 8 8 8 8 8 7 7 7 7 7 8 8 9 9 10 11 11 11 11 11 11 11 10 10 10 10 10 10 10 10 10 10 10 10 11 12 12 12 11 11 11 11 12 12 12 12 11 11
9 9 9 10 11 12 12 12 12 12 12 11 11 11 10 10 10 10 10 10 10 10 10 10 10 10 10 10 10 10 10 10 11 11 11 11 12 11 11 11 11 10 10 10 10 10 9 9 9 9 9 9 9 9 8 7 8 10 11 11 12 12 13 13 12 11 10 8 8
11 12 13 13 13 13 13 12 11 10 10 10 10 10 10 10 10 10 10 11 11 11 11 11 11 12 12 12 12 13 13 13 12 12 12 12 12 11 11 10 10 10 10 10 10 9 9 9 9 9 9 9 9 9 9 10 10 10 11 11 11 11 11 11 9 8 7 6 6
12 13 13 12 11 10 9 7 6 6 6 6 6 7 7 8 8 9 9 9 10 10 10 10 10 10 11 11 12 12 13 13 12 12 12 12 11 11 11 11 11 10 10 10 10 9 9 9 9 9 9 9 9 9 9 9 9 10 10 9 9 9 8 7 6 6 6 6 5
11 10 9 8 6 5 3 3 2 3 3 3 4 4 5 5 6 6 7 7 7 7 7 7 7 7 8 8 9 9 9 10 10 10 10 10 10 10 10 11 11 11 10 10 10 10 10 10 9 8 8 8 8 8 8 8 8 8 8 8 7 6 6 5 5 6 6 6 6
9 8 6 4 2 1 1 2 2 2 3 3 3 3 3 4 4 4 4 5 4 5 5 5 5 5 5 6 6 6 6 6 6 6 6 6 7 7 8 10 10 11 11 10 10 10 10 10 9 7 6 6 5 5 6 7 8 8 8 8 6 6 5 4 5 5 6 6 6
9 6 4 2 0 -0 1 2 3 3 4 4 4 4 4 3 3 3 2 2 2 2 3 3 4 5 6 7 8 8 7 7 6 5 4 4 5 5 6 8 10 11 11 11 11 10 9 8 7 5 4 2 2 3 5 7 9 10 9 8 7 6 5 4 5 5 5 5 5
7 6 4 1 -0 -1 -0 1 1 2 3 4 5 5 5 5 3 2 1 0 0 1 2 4 6 7 9 10 11 11 12 12 12 11 10 8 7 7 7 8 9 11 12 12 11 10 8 6 3 1 -1 -3 -1 2 5 9 10 9 9 7 6 6 5 6 6 6 6 6 6
7 6 4 3 1 0 -0 -0 -0 0 1 2 4 5 5 6 4 2 0 -1 -0 1 3 6 8 9 10 10 10 10 12 14 15 16 17 16 14 13 11 10 10 11 12 13 11 9 6 2 -2 -4 -6 -6 -2 2 6 9 8 7 6 5 5 6 6 7 8 8 8 7 6
8 7 6 6 4 3 2 2 2 2 2 2 2 3 3 4 4 3 2 1 1 1 2 3 5 6 7 7 6 6 6 6 8 10 13 16 17 17 16 14 12 11 11 11 9 6 2 -2 -5 -6 -6 -4 0 4 6 7 6 4 3 2 4 5 6 4 6 7 8 7 6
9 9 8 8 7 6 6 6 5 5 4 4 3 3 2 3 3 3 4 4 4 3 2 1 1 2 3 5 6 5 3 0 -0 1 3 8 13 16 17 16 14 12 10 8 6 2 -1 -4 -5 -4 -3 0 3 6 7 6 3 -0 -3 -4 -3 -3 -4 -7 -4 1 6 8 7
10 9 9 9 9 9 8 8 8 7 6 6 5 5 4 4 4 5 5 5 5 4 3 2 1 2 2 4 7 8 7 4 -0 -2 -1 2 8 13 16 17 16 13 10 7 4 1 -1 -2 -2 -1 0 2 5 7 7 5 0 -3 -2 5 12 10 -2 -20 -11 -1 6 7 7
11 10 10 10 10 10 9 9 9 9 8 8 7 7 7 6 6 6 6 6 6 6 5 5 4 3 2 1 5 9 12 10 3 -1 -2 1 6 10 15 17 17 15 13 10 6 3 2 1 1 2 3 4 6 7 7 6 4 13 29 47 33 8 -14 -20 -7 1 5 6 6
11 11 11 11 11 11 11 11 11 11 11 11 10 10 9 8 8 8 7 7 7 7 7 6 2 -1 -4 -4 4 13 18 15 5 -0 -1 2 6 10 13 16 17 17 16 14 10 8 6 5 5 5 5 6 5 4 6 11 17 19 14 2 -8 -13 -12 -6 2 5 6 5 5
9 10 11 11 12 12 12 13 13 13 14 14 14 13 12 12 11 10 10 10 10 8 4 -1 -7 -10 -7 2 15 22 22 14 4 -0 0 4 7 10 11 13 14 15 15 15 13 10 9 8 7 7 6 5 4 3 4 6 11 12 12 10 7 6 4 5 6 6 6 5 5
8 8 9 9 10 10 11 12 12 13 14 14 15 15 16 16 15 15 14 13 10 6 2 -0 5 14 22 27 20 13 5 -1 -2 -0 3 6 8 9 10 10 11 11 11 12 11 9 8 8 8 8 7 7 5 4 3 1 0 2 5 8 8 8 8 7 6 6 6 7 6
7 7 7 8 8 8 9 9 10 10 11 11 13 14 16 17 16 15 13 12 8 6 5 7 12 12 9 2 -2 -4 -4 -3 0 3 6 8 9 10 10 9 9 9 9 10 10 9 8 7 7 7 8 8 6 5 5 7 5 4 3 6 7 7 7 6 5 5 6 8 8
7 7 7 7 7 7 7 7 8 8 8 9 10 11 12 13 13 12 10 7 6 6 6 6 4 3 1 -1 -1 -0 1 3 5 7 8 10 10 11 10 9 8 8 9 9 8 6 5 3 3 4 6 6 6 5 5 5 3 2 4 6 6 6 6 6 6 7 7 7 7
8 7 7 7 7 6 6 6 6 6 7 7 7 8 9 10 10 10 8 7 6 6 6 6 6 5 4 4 4 5 6 7 8 9 10 10 10 10 10 10 9 8 8 8 7 5 3 2 3 4 5 6 6 4 2 3 4 5 6 7 6 6 6 7 9 11 12 11 9
9 8 8 7 7 7 6 6 6 6 6 6 6 7 7 8 9 9 8 8 7 7 6 7 7 7 6 6 6 6 7 8 8 8 8 8 8 9 10 10 9 9 8 8 8 7 6 6 6 5 5 5 4 3 3 4 5 6 6 6 6 6 6 9 11 11 11 12 11
10 9 9 9 8 8 7 6 6 6 6 6 6 6 6 7 8 8 8 8 9 8 8 7 7 7 7 6 6 7 8 8 8 8 8 7 8 9 9 8 7 7 8 8 10 10 10 9 7 4 2 2 3 5 6 6 6 6 6 6 5 5 6 8 11 12 10 6 5
10 10 10 10 9 9 8 7 7 6 6 6 6 6 6 6 6 6 6 7 7 7 7 7 7 7 8 7 7 7 7 7 8 8 7 8 8 8 7 7 7 7 8 10 12 13 13 9 4 -1 -3 0 4 6 6 6 6 6 6 6 6 5 5 5 5 6 7 10 11
10 10 10 10 10 10 9 9 8 8 7 7 7 7 6 6 6 5 5 6 6 6 7 7 7 8 9 9 8 7 7 7 8 8 8 9 9 8 7 7 7 8 9 12 15 16 12 2 -3 -5 -3 3 6 6 7 7 7 7 7 7 7 6 6 5 3 1 -0 0 2
8 9 9 10 10 11 11 10 10 10 9 9 8 8 7 7 6 5 5 5 6 6 6 7 7 8 9 9 8 7 7 8 9 9 9 10 9 8 7 7 7 8 9 11 13 13 9 0 -3 -1 3 6 7 7 7 7 7 7 7 7 7 7 7 5 3 2 2 4 5
7 8 8 9 10 10 11 11 11 11 11 11 10 9 9 8 7 6 6 6 6 6 6 7 7 8 8 8 8 8 8 9 10 10 10 9 8 8 7 6 7 7 8 9 9 8 6 4 4 5 7 7 7 6 6 6 6 6 6 7 8 8 7 5 3 3 5 8 8
7 7 7 7 8 8 9 10 10 11 11 11 11 10 10 10 9 8 7 7 7 7 8 8 8 8 8 8 8 9 9 9 10 9 9 8 7 7 7 7 7 7 8 8 8 7 7 7 7 7 7 6 6 6 5 5 5 6 6 6 8 8 8 7 6 7 8 9 8
6 6 6 5 6 6 7 7 8 9 9 9 10 10 10 10 10 9 9 9 9 9 9 8 9 9 8 9 9 9 9 8 8 8 8 7 7 7 7 7 7 7 8 8 8 7 7 7 6 6 6 6 5 5 5 5 6 6 6 7 8 9 9 9 9 10 9 8 5
Height
5722 5722 5723 5724 5725 5727 5727 5728 5729 5730 5730 5731 5732 5733 5733 5734 5735 5736 5737 5737 5738 5738 5739 5739 5740 5740 5741 5741 5742 5742 5743 5744 5744 5745 5746 5747 5747 5748 5748 5749 5750 5750 5751 5752 5752 5753 5753 5754 5754 5755 5755 5756 5756 5757 5757 5757 5757 5757 5757 5757 5757 5757 5757 5757 5756 5756 5755 5755 5754
5721 5722 5722 5723 5724 5725 5726 5727 5728 5728 5729 5730 5731 5731 5732 5733 5734 5734 5735 5736 5737 5737 5738 5738 5739 5739 5739 5740 5741 5741 5742 5742 5743 5744 5744 5745 5746 5746 5747 5748 5748 5749 5750 5750 5751 5751 5752 5752 5753 5753 5754 5754 5755 5755 5755 5755 5756 5756 5756 5756 5755 5755 5755 5755 5754 5754 5753 5752 5752
5720 5721 5722 5722 5723 5724 5725 5726 5727 5727 5728 5729 5729 5730 5731 5732 5732 5733 5734 5735 5735 5736 5736 5737 5737 5738 5738 5739 5739 5740 5741 5741 5742 5742 5743 5743 5744 5745 5746 5746 5747 5747 5748 5749 5749 5750 5750 5751 5751 5752 5752 5753 5753 5753 5754 5754 5754 5754 5754 5754 5753 5753 5753 5752 5752 5752 5751 5750 5749
5719 5720 5721 5722 5722 5723 5724 5725 5726 5726 5727 5727 5728 5728 5729 5730 5731 5732 5732 5733 5734 5734 5735 5735 5736 5736 5737 5737 5738 5739 5739 5740 5740 5741 5742 5742 5743 5743 5744 5745 5745 5746 5747 5747 5748 5748 5749 5749 5750 5750 5751 5751 5752 5752 5752 5752 5752 5752 5752 5752 5751 5751 5751 5750 5750 5749 5748 5748 5747
5718 5719 5720 5720 5721 5722 5723 5723 5724 5725 5725 5726 5726 5727 5728 5729 5730 5730 5731 5732 5732 5733 5733 5734 5734 5735 5736 5736 5737 5737 5738 5738 5739 5740 5740 5741 5741 5742 5742 5743 5744 5744 5745 5746 5746 5747 5747 5748 5748 5749 5749 5750 5750 5750 5750 5750 5750 5750 5749 5749 5749 5749 5748 5748 5747 5747 5747 5746 5745
5717 5718 5718 5719 5720 5721 5721 5722 5722 5723 5724 5724 5725 5726 5727 5727 5728 5729 5730 5730 5731 5731 5732 5732 5733 5734 5734 5735 5736 5736 5737 5737 5738 5738 5739 5739 5740 5740 5741 5742 5742 5743 5743 5744 5744 5745 5745 5746 5747 5747 5747 5748 5748 5748 5748 5748 5747 5747 5747 5747 5747 5746 5746 5746 5745 5745 5744 5743 5743
5716 5717 5717 5718 5718 5719 5720 5720 5721 5722 5722 5723 5724 5725 5726 5726 5727 5728 5728 5729 5729 5730 5730 5731 5732 5732 5733 5734 5734 5735 5735 5736 5736 5737 5737 5738 5738 5739 5740 5740 5741 5741 5742 5742 5742 5743 5743 5744 5745 5745 5746 5746 5746 5746 5746 5745 5745 5745 5745 5745 5744 5744 5744 5743 5743 5742 5742 5741 5740
5715 5715 5716 5717 5717 5718 5718 5719 5720 5720 5721 5722 5723 5723 5724 5725 5726 5726 5727 5727 5728 5729 5729 5730 5731 5731 5732 5732 5733 5733 5734 5734 5735 5735 5736 5736 5737 5737 5738 5739 5739 5740 5740 5741 5741 5741 5742 5742 5743 5743 5743 5744 5744 5743 5743 5743 5742 5742 5742 5742 5742 5742 5741 5741 5741 5740 5739 5739 5737
5713 5714 5715 5715 5716 5717 5717 5718 5718 5719 5720 5721 5722 5722 5723 5724 5724 5725 5726 5726 5727 5727 5728 5729 5730 5730 5731 5731 5732 5732 5733 5733 5734 5734 5735 5735 5736 5736 5737 5737 5737 5738 5738 5739 5739 5740 5740 5740 5741 5741 5741 5742 5741 5741 5741 5740 5740 5740 5740 5740 5739 5739 5738 5738 5738 5737 5737 5736 5734
5712 5713 5713 5714 5715 5715 5716 5717 5717 5718 5719 5720 5721 5721 5722 5722 5723 5724 5724 5725 5726 5727 5727 5728 5728 5729 5729 5730 5730 5731 5731 5732 5732 5733 5733 5734 5734 5735 5735 5736 5736 5736 5737 5737 5737 5737 5738 5738 5738 5739 5739 5739 5739 5738 5738 5738 5738 5738 5737 5737 5737 5736 5736 5735 5735 5734 5733 5732 5732
5711 5712 5712 5713 5714 5715 5715 5716 5717 5717 5718 5719 5720 5720 5721 5721 5722 5722 5723 5724 5725 5725 5726 5727 5727 5727 5728 5728 5729 5729 5730 5731 5731 5732 5732 5732 5733 5733 5733 5734 5734 5734 5735 5735 5735 5735 5736 5736 5736 5737 5737 5736 5736 5736 5736 5736 5735 5735 5735 5734 5734 5733 5733 5733 5732 5731 5730 5730 5729
5711 5711 5712 5712 5713 5714 5714 5715 5716 5717 5717 5718 5719 5719 5720 5720 5721 5722 5722 5723 5723 5724 5725 5725 5726 5726 5727 5727 5727 5728 5728 5729 5730 5730 5731 5731 5731 5732 5732 5732 5732 5732 5732 5732 5733 5733 5733 5733 5734 5734 5734 5733 5733 5733 5733 5733 5732 5732 5732 5732 5731 5731 5730 5730 5730 5729 5728 5727 5727
5710 5711 5711 5712 5712 5713 5714 5715 5715 5716 5717 5717 5718 5718 5719 5719 5720 5720 5721 5722 5722 5723 5723 5724 5724 5725 5725 5726 5726 5727 5727 5727 5728 5728 5729 5729 5729 5729 5730 5730 5730 5730 5730 5730 5730 5731 5731 5731 5731 5731 5731 5731 5731 5730 5730 5730 5729 5729 5729 5729 5728 5728 5727 5727 5727 5726 5725 5724 5723
5709 5710 5711 5711 5712 5712 5713 5714 5715 5715 5716 5717 5717 5717 5718 5718 5719 5719 5720 5720 5721 5722 5722 5722 5723 5723 5724 5724 5725 5725 5725 5726 5726 5727 5727 5727 5727 5727 5727 5728 5728 5728 5728 5728 5728 5728 5728 5728 5728 5728 5728 5728 5727 5727 5727 5727 5727 5726 5726 5726 5725 5725 5724 5723 5722 5722 5721 5721 5720
5709 5709 5710 5711 5711 5712 5712 5713 5714 5715 5715 5716 5716 5716 5717 5717 5717 5718 5718 5719 5720 5720 5721 5721 5721 5722 5722 5722 5723 5723 5723 5724 5724 5725 5725 5725 5725 5725 5725 5725 5726 5726 5726 5725 5725 5725 5725 5725 5725 5725 5725 5725 5724 5724 5724 5724 5723 5723 5723 5722 5722 5721 5721 5720 5719 5718 5718 5717 5717
5708 5709 5709 5710 5710 5711 5712 5712 5713 5713 5714 5714 5715 5715 5715 5716 5716 5717 5717 5718 5718 5719 5719 5719 5720 5720 5721 5721 5721 5721 5722 5722 5722 5723 5723 5723 5723 5723 5723 5723 5723 5723 5723 5723 5723 5723 5722 5722 5722 5722 5722 5722 5722 5721 5721 5721 5720 5720 5719 5719 5718 5718 5717 5717 5716 5715 5714 5713 5712
5707 5708 5708 5709 5709 5710 5711 5711 5712 5712 5712 5713 5713 5713 5714 5714 5715 5715 5716 5716 5717 5717 5717 5718 5718 5718 5719 5719 5719 5719 5720 5720 5720 5721 5721 5721 5721 5721 5721 5721 5721 5721 5720 5720 5720 5720 5720 5720 5719 5719 5719 5719 5718 5718 5718 5717 5717 5717 5716 5716 5715 5715 5714 5713 5713 5712 5711 5710 5709
5706 5707 5707 5708 5708 5709 5710 5710 5710 5711 5711 5711 5712 5712 5712 5712 5713 5714 5714 5715 5715 5715 5716 5716 5717 5717 5717 5717 5717 5717 5718 5718 5718 5718 5718 5718 5718 5718 5718 5718 5718 5718 5718 5718 5718 5718 5717 5717 5717 5717 5716 5716 5716 5715 5715 5714 5714 5714 5713 5713 5712 5712 5711 5710 5710 5709 5707 5706 5705
5705 5706 5706 5707 5707 5708 5708 5708 5709 5709 5709 5710 5710 5710 5711 5711 5712 5712 5712 5713 5713 5714 5714 5714 5715 5715 5715 5715 5715 5716 5716 5716 5716 5716 5716 5716 5716 5715 5715 5715 5715 5715 5715 5715 5715 5715 5715 5715 5714 5714 5714 5713 5713 5712 5712 5712 5711 5711 5711 5710 5709 5709 5708 5707 5706 5705 5704 5703 5702
5704 5704 5705 5705 5706 5706 5707 5707 5707 5707 5708 5708 5708 5708 5709 5709 5710 5710 5711 5711 5712 5712 5712 5712 5712 5713 5713 5713 5713 5713 5713 5713 5713 5713 5713 5713 5713 5713 5713 5713 5713 5713 5713 5713 5713 5712 5712 5712 5712 5712 5712 5711 5711 5710 5710 5709 5709 5708 5708 5707 5707 5706 5705 5704 5703 5702 5702 5701 5700
5703 5703 5703 5704 5704 5704 5705 5705 5705 5706 5706 5706 5707 5707 5707 5708 5708 5709 5709 5710 5710 5710 5710 5710 5711 5711 5711 5711 5711 5711 5711 5711 5711 5711 5711 5711 5711 5710 5710 5710 5710 5710 5711 5711 5710 5710 5710 5710 5709 5709 5709 5709 5708 5708 5707 5707 5706 5705 5705 5704 5703 5703 5702 5701 5700 5699 5699 5698 5697
5701 5702 5702 5702 5702 5703 5703 5703 5704 5704 5704 5705 5705 5706 5706 5707 5707 5707 5707 5708 5708 5708 5708 5708 5708 5708 5708 5708 5708 5708 5708 5708 5708 5708 5708 5708 5708 5708 5708 5707 5707 5708 5708 5708 5708 5708 5707 5707 5707 5707 5707 5706 5706 5705 5705 5704 5703 5702 5702 5701 5701 5700 5699 5698 5697 5697 5696 5695 5694
5700 5700 5700 5701 5701 5702 5702 5702 5702 5703 5703 5703 5704 5704 5705 5705 5705 5706 5706 5706 5706 5706 5706 5706 5706 5706 5706 5706 5706 5706 5706 5706 5706 5706 5706 5706 5706 5706 5706 5705 5705 5705 5706 5706 5706 5706 5705 5705 5705 5704 5704 5703 5703 5702 5702 5701 5700 5699 5698 5698 5697 5697 5696 5695 5694 5694 5693 5692 5691
5698 5698 5699 5699 5699 5700 5700 5701 5701 5702 5702 5702 5702 5703 5703 5703 5703 5703 5704 5704 5704 5704 5704 5704 5704 5704 5703 5703 5703 5703 5703 5704 5704 5704 5704 5704 5704 5704 5703 5703 5703 5703 5703 5703 5703 5703 5703 5703 5702 5701 5701 5700 5700 5699 5699 5698 5697 5696 5695 5694 5693 5692 5692 5692 5692 5691 5690 5689 5688
5696 5696 5697 5697 5697 5698 5698 5699 5699 5700 5700 5701 5701 5701 5701 5701 5702 5702 5702 5702 5702 5702 5702 5702 5702 5702 5701 5701 5701 5701 5701 5702 5702 5702 5702 5702 5702 5702 5701 5701 5701 5701 5701 5701 5701 5701 5700 5700 5699 5698 5697 5697 5697 5696 5696 5695 5694 5693 5691 5690 5688 5689 5690 5690 5688 5687 5687 5686 5685
5694 5695 5695 5696 5696 5696 5697 5697 5697 5698 5698 5698 5699 5699 5699 5699 5699 5699 5699 5700 5700 5700 5700 5700 5700 5699 5699 5699 5699 5699 5699 5699 5699 5699 5699 5699 5699 5699 5699 5699 5698 5698 5698 5698 5698 5698 5698 5697 5696 5695 5694 5694 5693 5693 5693 5692 5691 5689 5687 5686 5687 5688 5689 5687 5685 5684 5684 5683 5682
5693 5693 5693 5694 5694 5694 5695 5695 5696 5696 5696 5696 5697 5697 5697 5697 5697 5697 5697 5697 5697 5697 5697 5697 5697 5697 5697 5697 5697 5697 5697 5697 5697 5697 5697 5697 5697 5697 5697 5697 5696 5696 5696 5695 5695 5695 5695 5694 5693 5692 5691 5690 5690 5690 5690 5689 5688 5687 5686 5686 5688 5687 5685 5682 5682 5681 5680 5680 5679
5691 5692 5692 5692 5692 5693 5693 5693 5694 5694 5694 5694 5694 5694 5695 5695 5695 5695 5695 5695 5695 5695 5695 5695 5695 5695 5694 5694 5694 5694 5694 5694 5694 5694 5694 5694 5694 5694 5694 5694 5694 5693 5693 5693 5693 5692 5692 5691 5690 5689 5688 5687 5687 5687 5687 5686 5687 5687 5687 5686 5685 5683 5681 5680 5678 5677 5677 5676 5675
5689 5689 5690 5690 5691 5691 5691 5692 5692 5692 5692 5692 5692 5692 5692 5692 5692 5693 5693 5693 5693 5693 5693 5693 5692 5692 5692 5692 5692 5692 5692 5692 5692 5692 5692 5692 5692 5692 5692 5691 5691 5691 5690 5690 5690 5689 5688 5687 5686 5686 5685 5684 5684 5684 5684 5683 5682 5682 5682 5682 5680 5680 5679 5677 5676 5675 5673 5672 5672
5686 5687 5687 5688 5688 5689 5689 5690 5690 5690 5690 5690 5690 5690 5690 5691 5691 5691 5691 5691 5691 5691 5691 5691 5691 5690 5690 5691 5691 5691 5691 5691 5691 5690 5690 5690 5690 5689 5689 5688 5688 5687 5687 5687 5687 5687 5685 5684 5683 5682 5682 5681 5681 5681 5680 5680 5679 5679 5679 5678 5677 5676 5675 5674 5673 5672 5670 5669 5668
5684 5684 5685 5685 5686 5686 5687 5687 5687 5687 5687 5687 5687 5688 5688 5688 5689 5689 5689 5689 5689 5689 5689 5689 5689 5689 5689 5689 5689 5689 5689 5688 5688 5688 5687 5687 5687 5687 5686 5686 5685 5685 5684 5684 5684 5683 5682 5681 5680 5679 5679 5678 5677 5677 5677 5677 5677 5676 5675 5674 5673 5672 5672 5670 5669 5667 5666 5665 5664
5682 5682 5682 5682 5683 5683 5684 5684 5684 5685 5685 5685 5685 5686 5686 5686 5686 5687 5686 5686 5686 5686 5687 5687 5687 5687 5687 5687 5687 5687 5686 5686 5686 5685 5685 5685 5685 5684 5684 5683 5682 5682 5681 5681 5681 5681 5679 5678 5677 5677 5676 5675 5674 5674 5674 5675 5674 5673 5672 5671 5670 5669 5667 5666 5665 5663 5662 5661 5660
5680 5680 5680 5680 5681 5681 5682 5682 5682 5682 5682 5682 5683 5683 5683 5684 5684 5684 5684 5684 5684 5684 5684 5684 5684 5684 5684 5684 5684 5683 5683 5683 5683 5682 5682 5682 5682 5682 5681 5681 5680 5679 5678 5678 5678 5677 5677 5676 5675 5674 5673 5672 5672 5672 5672 5671 5670 5669 5668 5667 5666 5665 5663 5662 5661 5659 5658 5657 5656
5678 5678 5678 5678 5679 5679 5679 5679 5679 5679 5680 5680 5680 5681 5681 5681 5681 5682 5682 5682 5681 5681 5682 5682 5682 5682 5682 5681 5681 5680 5680 5680 5680 5680 5679 5679 5679 5679 5678 5678 5677 5676 5675 5675 5675 5675 5674 5674 5672 5671 5670 5669 5669 5668 5667 5667 5666 5665 5664 5664 5662 5661 5660 5658 5657 5657 5657 5655 5654
5677 5677 5677 5677 5677 5677 5677 5677 5677 5677 5677 5677 5678 5678 5678 5679 5679 5679 5679 5679 5679 5679 5679 5679 5679 5679 5679 5678 5678 5677 5677 5677 5677 5677 5676 5676 5675 5675 5675 5674 5674 5673 5672 5672 5672 5672 5671 5670 5669 5668 5667 5665 5665 5664 5664 5663 5662 5662 5661 5660 5659 5658 5657 5656 5655 5654 5654 5652 5651
5675 5675 5675 5675 5675 5675 5675 5675 5675 5675 5675 5675 5676 5676 5676 5676 5676 5676 5676 5676 5676 5676 5677 5677 5677 5676 5676 5676 5675 5675 5675 5674 5674 5674 5673 5673 5672 5672 5672 5671 5671 5670 5670 5670 5670 5669 5668 5667 5667 5666 5665 5662 5662 5662 5661 5660 5659 5658 5657 5656 5655 5654 5653 5652 5652 5651 5650 5649 5648
5673 5673 5673 5673 5673 5673 5673 5673 5673 5673 5673 5673 5674 5674 5674 5674 5673 5673 5673 5673 5673 5673 5674 5674 5674 5674 5673 5673 5673 5672 5672 5671 5671 5671 5671 5670 5670 5669 5669 5669 5668 5668 5668 5668 5667 5667 5666 5666 5665 5663 5662 5660 5660 5659 5657 5656 5655 5655 5654 5653 5652 5651 5649 5648 5647 5646 5646 5645 5644
5672 5672 5672 5672 5672 5672 5672 5672 5672 5672 5672 5672 5672 5672 5672 5671 5671 5671 5670 5670 5670 5671 5671 5672 5672 5671 5671 5670 5670 5669 5669 5668 5668 5668 5668 5668 5667 5667 5666 5666 5666 5666 5666 5665 5664 5664 5664 5663 5661 5660 5658 5657 5656 5655 5654 5653 5652 5651 5650 5649 5648 5647 5646 5645 5643 5642 5642 5641 5640
5670 5670 5670 5670 5670 5670 5670 5670 5670 5670 5670 5670 5670 5670 5669 5669 5669 5668 5668 5668 5668 5668 5669 5669 5669 5668 5668 5667 5667 5667 5666 5666 5667 5667 5666 5665 5665 5664 5663 5663 5662 5663 5662 5662 5661 5660 5660 5659 5657 5656 5655 5654 5653 5652 5651 5650 5649 5648 5647 5646 5645 5643 5642 5641 5640 5639 5638 5637 5636
5668 5668 5668 5669 5669 5668 5668 5668 5668 5668 5668 5668 5667 5667 5667 5667 5667 5666 5666 5665 5666 5666 5666 5666 5666 5665 5665 5664 5664 5664 5664 5664 5664 5664 5663 5662 5661 5661 5660 5660 5659 5659 5659 5658 5657 5657 5656 5655 5653 5652 5652 5651 5649 5648 5647 5647 5646 5644 5643 5642 5641 5640 5638 5637 5637 5636 5635 5633 5632
5667 5667 5667 5667 5667 5667 5666 5666 5666 5666 5666 5666 5665 5665 5665 5665 5664 5664 5664 5663 5663 5663 5663 5663 5663 5662 5662 5662 5662 5662 5662 5661 5661 5661 5660 5659 5658 5657 5657 5657 5656 5656 5656 5655 5654 5653 5652 5651 5650 5649 5648 5647 5646 5645 5644 5643 5642 5640 5639 5638 5637 5637 5636 5634 5633 5632 5631 5630 5628